Location: Davidschlag
(48.4333°N, 14.2833°E)
Time: 10:26:42
(UTC+00:00)

STARLINK-65 - Pass Details

Date: 27 February 2020
Orbit: 528 x 531 km, 53.0° (Epoch: 30 March)

Event Time Altitude Azimuth Distance (km) Brightness Sun altitude
Rises 18:01:42 0° 281° (W) 2,668 9.0 -13.9°
Reaches altitude 10° 18:04:01 10° 288° (WNW) 1,779 7.5 -14.2°
Maximum altitude 18:07:52 42° 1° (N) 766 4.3 -14.9°
Enters shadow 18:09:57 23° 59° (ENE) 1,163 4.8 -15.2°
